Weather History for Perryton, TX

Change the Weather History Date:

Wednesday, January 29, 2014

  Actual Average Record
Temperature  
Mean Temperature 34 °F -  
Max Temperature 51 °F 49 °F 74 °F (1986)
Min Temperature 17 °F 19 °F -3 °F (1966)
Degree Days  
Heating Degree Days 31    
Moisture  
Dew Point 8 °F    
Average Humidity 40    
Maximum Humidity 66    
Minimum Humidity 17    
Precipitation  
Precipitation 0.00 in - - ()
Sea Level Pressure  
Sea Level Pressure 30.00 in    
Wind  
Wind Speed 14 mph (SSW)    
Max Wind Speed 22 mph    
Max Gust Speed 26 mph    
Visibility 10 miles    
Events      
Averages and records for this station are not official NWS values.
T = Trace of Precipitation, MM = Missing Value Source: NWS Daily Summary

Daily Weather History Graph

Daily Weather History Graph

Search for Another Location

Airport:

Trip Planner

Search our weather history database for the weather conditions in past years. The results will help you decide how hot, cold, wet, or windy it might be!

Date:

Astronomy

Jan. 29, 2014 Rise Set
Actual Time 7:46 AM CST 6:06 PM CST
Civil Twilight 7:19 AM CST 6:33 PM CST
Nautical Twilight 6:48 AM CST 7:04 PM CST
Astronomical Twilight 6:17 AM CST 7:34 PM CST
Moon 6:24 AM CST 5:07 PM CST
Length of Visible Light 11h 14m
Length of Day
10h 19m
Waning Crescent, 2% of the Moon is Illuminated
Jan 29
Waning Crescent
Jan 30
New
Feb 6
First Quarter
Feb 14
Full
Feb 22
Last Quarter

Hourly Weather History & Observations

Time (CST) Temp. Windchill Dew Point Humidity Pressure Visibility Wind Dir Wind Speed Gust Speed Precip Events Conditions
12:15 AM 19.6 °F 7.4 °F 8.6 °F 62% 30.21 in 10.0 mi SW 11.5 mph - N/A   Clear
12:35 AM 18.5 °F 6.8 °F 8.4 °F 65% 30.21 in 10.0 mi SW 10.4 mph - N/A   Clear
12:55 AM 18.3 °F 5.9 °F 8.1 °F 64% 30.19 in 10.0 mi SW 11.5 mph - N/A   Clear
1:15 AM 18.0 °F 5.4 °F 7.7 °F 64% 30.19 in 10.0 mi SW 11.5 mph - N/A   Clear
1:35 AM 17.6 °F 5.0 °F 7.7 °F 65% 30.17 in 10.0 mi SW 11.5 mph - N/A   Clear
1:55 AM 18.0 °F 6.9 °F 7.5 °F 64% 30.17 in 10.0 mi SW 9.2 mph - N/A   Clear
2:15 AM 18.7 °F 6.3 °F 7.5 °F 62% 30.17 in 10.0 mi SW 11.5 mph - N/A   Clear
2:35 AM 19.0 °F 6.8 °F 7.7 °F 61% 30.16 in 10.0 mi SSW 11.5 mph - N/A   Clear
2:55 AM 17.4 °F 7.1 °F 7.9 °F 66% 30.16 in 10.0 mi SSW 8.1 mph - N/A   Clear
3:15 AM 17.6 °F 7.3 °F 7.9 °F 66% 30.16 in 10.0 mi SSW 8.1 mph - N/A   Clear
3:35 AM 19.8 °F 8.3 °F 7.7 °F 60% 30.14 in 10.0 mi SW 10.4 mph - N/A   Clear
3:55 AM 20.1 °F 8.1 °F 7.7 °F 59% 30.14 in 10.0 mi SW 11.5 mph - N/A   Clear
4:15 AM 19.9 °F 7.3 °F 7.2 °F 58% 30.14 in 10.0 mi SW 12.7 mph - N/A   Clear
4:35 AM 19.2 °F 6.4 °F 6.8 °F 59% 30.12 in 10.0 mi SW 12.7 mph - N/A   Clear
4:55 AM 18.9 °F 6.5 °F 6.8 °F 59% 30.12 in 10.0 mi SW 11.5 mph - N/A   Clear
5:15 AM 18.1 °F 7.1 °F 6.8 °F 61% 30.12 in 10.0 mi SW 9.2 mph - N/A   Clear
5:35 AM 17.6 °F 4.3 °F 6.6 °F 62% 30.11 in 10.0 mi SW 12.7 mph - N/A   Clear
5:55 AM 17.6 °F 5.7 °F 6.6 °F 62% 30.11 in 10.0 mi SSW 10.4 mph - N/A   Clear
6:15 AM 17.6 °F 5.0 °F 6.4 °F 62% 30.10 in 10.0 mi SSW 11.5 mph - N/A   Clear
6:35 AM 17.8 °F 5.2 °F 6.3 °F 61% 30.10 in 10.0 mi SSW 11.5 mph - N/A   Clear
6:55 AM 18.0 °F 5.4 °F 6.1 °F 60% 30.10 in 10.0 mi SSW 11.5 mph - N/A   Clear
7:15 AM 17.6 °F 5.0 °F 6.4 °F 62% 30.09 in 10.0 mi SSW 11.5 mph - N/A   Clear
7:35 AM 17.6 °F 4.3 °F 6.8 °F 63% 30.09 in 10.0 mi SW 12.7 mph - N/A   Clear
7:55 AM 19.0 °F 6.1 °F 6.6 °F 59% 30.09 in 10.0 mi SW 12.7 mph - N/A   Clear
8:15 AM 22.3 °F 9.7 °F 5.5 °F 49% 30.10 in 10.0 mi SW 13.8 mph - N/A   Clear
8:35 AM 24.1 °F 12.0 °F 5.5 °F 45% 30.10 in 10.0 mi SW 13.8 mph - N/A   Clear
8:55 AM 26.1 °F 14.5 °F 5.5 °F 42% 30.10 in 10.0 mi SW 13.8 mph - N/A   Clear
9:15 AM 27.1 °F 15.9 °F 6.6 °F 42% 30.09 in 10.0 mi SW 13.8 mph - N/A   Clear
9:35 AM 28.9 °F 17.3 °F 6.8 °F 39% 30.08 in 10.0 mi SW 16.1 mph - N/A   Clear
9:55 AM 30.6 °F 19.0 °F 7.5 °F 38% 30.08 in 10.0 mi SW 17.3 mph - N/A   Clear
10:15 AM 32.2 °F 21.4 °F 8.1 °F 36% 30.08 in 10.0 mi SW 16.1 mph - N/A   Clear
10:35 AM 34.3 °F 23.9 °F 8.8 °F 35% 30.08 in 10.0 mi SW 17.3 mph - N/A   Clear
10:55 AM 36.1 °F 25.9 °F 9.0 °F 32% 30.08 in 10.0 mi SW 18.4 mph - N/A   Clear
11:15 AM 37.6 °F 28.4 °F 9.3 °F 31% 30.08 in 10.0 mi SW 16.1 mph - N/A   Clear
11:35 AM 39.9 °F 31.1 °F 9.9 °F 29% 30.07 in 10.0 mi SW 17.3 mph 23.0 mph N/A   Clear
11:55 AM 41.9 °F 33.4 °F 10.6 °F 28% 30.06 in 10.0 mi SW 18.4 mph 25.3 mph N/A   Clear
12:15 PM 43.2 °F 34.7 °F 10.0 °F 26% 30.04 in 10.0 mi SW 19.6 mph 24.2 mph N/A   Clear
12:35 PM 44.6 °F 36.4 °F 10.2 °F 25% 30.03 in 10.0 mi SW 20.7 mph - N/A   Clear
12:55 PM 46.6 °F - 10.4 °F 23% 30.02 in 10.0 mi SW 18.4 mph - N/A   Clear
1:15 PM 47.8 °F - 9.5 °F 21% 30.00 in 10.0 mi SW 18.4 mph - N/A   Clear
1:35 PM 48.6 °F - 9.3 °F 20% 29.98 in 10.0 mi SSW 15.0 mph 20.7 mph N/A   Clear
1:55 PM 49.1 °F - 8.4 °F 19% 29.97 in 10.0 mi SSW 16.1 mph 20.7 mph N/A   Clear
2:15 PM 49.8 °F - 9.0 °F 19% 29.96 in 10.0 mi SSW 17.3 mph 21.9 mph N/A   Clear
2:35 PM 49.5 °F - 8.1 °F 19% 29.95 in 10.0 mi SSW 16.1 mph 25.3 mph N/A   Clear
2:55 PM 49.5 °F - 7.3 °F 18% 29.95 in 10.0 mi SSW 17.3 mph - N/A   Clear
3:15 PM 50.0 °F - 7.5 °F 18% 29.93 in 10.0 mi SSW 17.3 mph - N/A   Clear
3:35 PM 50.4 °F - 8.1 °F 18% 29.93 in 10.0 mi SSW 17.3 mph - N/A   Clear
3:55 PM 50.9 °F - 7.2 °F 17% 29.93 in 10.0 mi SSW 19.6 mph - N/A   Clear
4:15 PM 51.4 °F - 7.7 °F 17% 29.91 in 10.0 mi SSW 17.3 mph 24.2 mph N/A   Clear
4:35 PM 51.3 °F - 7.9 °F 17% 29.90 in 10.0 mi SSW 16.1 mph 21.9 mph N/A   Clear
4:55 PM 50.5 °F - 7.3 °F 17% 29.89 in 10.0 mi SSW 19.6 mph 24.2 mph N/A   Clear
5:15 PM 49.8 °F - 8.6 °F 19% 29.89 in 10.0 mi SSW 16.1 mph 21.9 mph N/A   Clear
5:35 PM 48.0 °F - 10.0 °F 22% 29.88 in 10.0 mi South 15.0 mph - N/A   Clear
5:55 PM 45.5 °F 39.6 °F 10.0 °F 24% 29.88 in 10.0 mi South 12.7 mph - N/A   Clear
6:15 PM 42.3 °F 35.9 °F 9.7 °F 26% 29.88 in 10.0 mi South 11.5 mph - N/A   Clear
6:35 PM 38.5 °F 30.7 °F 9.5 °F 30% 29.87 in 10.0 mi South 12.7 mph - N/A   Clear
6:55 PM 37.4 °F 28.9 °F 9.7 °F 32% 29.87 in 10.0 mi South 13.8 mph - N/A   Clear
7:15 PM 36.5 °F 27.4 °F 9.5 °F 33% 29.86 in 10.0 mi South 15.0 mph - N/A   Clear
7:35 PM 37.0 °F 28.1 °F 9.5 °F 32% 29.85 in 10.0 mi South 15.0 mph - N/A   Clear
7:55 PM 37.4 °F 28.2 °F 9.5 °F 32% 29.85 in 10.0 mi South 16.1 mph - N/A   Clear
8:15 PM 37.6 °F 28.1 °F 9.5 °F 31% 29.83 in 10.0 mi South 17.3 mph - N/A   Clear
8:35 PM 35.6 °F 25.9 °F 9.3 °F 34% 29.82 in 10.0 mi South 16.1 mph - N/A   Clear
8:55 PM 36.5 °F 26.3 °F 8.2 °F 31% 29.81 in 10.0 mi South 18.4 mph - N/A   Clear
9:15 PM 35.8 °F 25.7 °F 7.7 °F 31% 29.80 in 10.0 mi South 17.3 mph - N/A   Clear
9:35 PM 36.3 °F 26.1 °F 7.5 °F 30% 29.80 in 10.0 mi South 18.4 mph - N/A   Clear
9:55 PM 36.1 °F 25.5 °F 7.7 °F 31% 29.78 in 10.0 mi South 19.6 mph - N/A   Clear
10:15 PM 36.5 °F 26.3 °F 7.7 °F 30% 29.78 in 10.0 mi South 18.4 mph - N/A   Clear
10:35 PM 35.6 °F 25.2 °F 7.7 °F 31% 29.77 in 10.0 mi South 18.4 mph - N/A   Clear
10:55 PM 35.8 °F 25.1 °F 7.7 °F 31% 29.76 in 10.0 mi South 19.6 mph 24.2 mph N/A   Clear
11:15 PM 36.5 °F 25.4 °F 8.2 °F 31% 29.74 in 10.0 mi South 21.9 mph 26.5 mph N/A   Clear
11:35 PM 36.7 °F 26.3 °F 8.4 °F 31% 29.73 in 10.0 mi South 19.6 mph - N/A   Clear
11:55 PM 36.9 °F 26.2 °F 8.6 °F 31% 29.73 in 10.0 mi South 20.7 mph - N/A   Clear